Rbgn^[z[y[W
メイン
   新天体発見情報
     Comet C/2021 G1 (Leonard)
投稿するにはまず登録を

フラット表示 前のトピック | 次のトピック
投稿者 スレッド
佐藤裕久
投稿日時: 2021-5-19 20:46
モデレータ
登録日: 2005-6-12
居住地: 日本
投稿: 2686
オンライン
Comet C/2021 G1 (Leonard)

Gregory J. Leonardの通報によると、4月11.3日UT、シーイング約1.7"において、Mt Lemmon
の1.5-m 反射望遠鏡で得た30秒4枚のCCD露出から中程度に集光した約10"のコマのある彗星を
発見した。
D. Rankinは、4月20.2日UT、1.5-m Catalinaスカイサーベイの反射望遠鏡で得た画像から
尾のない集光した6"のコマを見つけた。「かすかだが、この天体は明瞭な活動を見せている」
と注記した。

発見位置は次のとおり、

     2021 UT             R.A. (2000) Decl.       Mag.   Observer
     Apr. 11.32667   14 19 13.62   +55 04 30.2   21.7   Leonard
          11.33188   14 19 12.57   +55 04 35.9   21.0     "
          11.33710   14 19 11.56   +55 04 41.8   22.0     "
          11.34231   14 19 10.46   +55 04 46.2   20.8     "
          11.36843   14 19 05.24   +55 05 13.2   20.8     "
          11.38509   14 19 01.87   +55 05 31.2   21.4     "
          11.39353   14 19 00.07   +55 05 39.9   21.0     "

MPCの楕円軌道要素、位置推算表は次のとおり、

    C/2021 G1 (Leonard)                                                         
Epoch 2021 July 5.0 TT = JDT 2459400.5                                          
T 2021 July 22.22970 TT                                 Rudenko                 
q   3.4236653            (2000.0)            P               Q                  
z  +0.0133307      Peri.  107.48180     -0.63642339     +0.18779561             
 +/-0.0000000      Node   270.69110     -0.01527375     +0.96665087             
e   0.9543602      Incl.  131.56667     +0.77118868     +0.17412327             
From 48 observations 2021 Apr. 11-May 6, mean residual 0".5.                    
                                                                                
    C/2021 G1 (Leonard)                                                         
Epoch 2020 Dec. 17.0 TT = JDT 2459200.5                                         
T 2021 July 22.26578 TT                                 Rudenko                 
q   3.4236345            (2000.0)            P               Q                  
z  +0.0134262      Peri.  107.48458     -0.63638954     +0.18789506             
 +/-0.0000000      Node   270.68692     -0.01518553     +0.96663940             
e   0.9540337      Incl.  131.56640     +0.77121836     +0.17407961             
From 48 observations 2021 Apr. 11-May 6, mean residual 0".5.                    
                                                                                
Ephemeris:
Date    TT    R. A. (2000) Decl.     Delta      r    Elong.  Phase   m1
2021 04 06    14 36 11.8 +53 23 41   2.9926  3.5586   116.9    14.5  21.9
...
2021 04 21    13 44 56.4 +57 18 47   3.0384  3.5242   110.9    15.4  21.9
...
2021 04 29    13 15 08.2 +58 17 48   3.0951  3.5078   105.9    16.0  21.9
...
2021 05 05    12 53 19.2 +58 32 01   3.1498  3.4964   101.7    16.4  21.9
2021 05 06    12 49 48.0 +58 32 04   3.1598  3.4946   100.9    16.5  21.9
2021 05 07    12 46 19.3 +58 31 30   3.1700  3.4928   100.2    16.5  21.9
...
2021 05 13    12 26 30.0 +58 16 07   3.2359  3.4824    95.6    16.8  22.0
...
2021 05 21    12 03 24.8 +57 29 10   3.3334  3.4699    89.2    17.0  22.0
...
2021 06 05    11 31 16.0 +55 11 09   3.5328  3.4504    77.1    16.7  22.1

(MPEC 2021-J72、CBET 4959)

フラット表示 前のトピック | 次のトピック

題名 投稿者 日時
 » Comet C/2021 G1 (Leonard) 佐藤裕久 2021-5-19 20:46

投稿するにはまず登録を
 
© 1999 Tsutomu Seki.